owner,sensor,date,latitude,longitude,vertical_datum,direction_of_sea_water_velocity,sea_water_speed,upward_sea_water_velocity,qcFlag 
TABS,ioos:station:wmo:42048:1,1998-03-01T00:00:00Z,27.9396,-96.8429,2.0,220.9075591,57.57091366,-99999.0,'11111222,11111222,99999999' 
TABS,ioos:station:wmo:42048:1,1998-03-01T00:30:00Z,27.9396,-96.8429,2.0,221.7671054,57.93351534,-99999.0,'11111222,11111222,99999999' 
TABS,ioos:station:wmo:42048:1,1998-03-01T01:00:00Z,27.9396,-96.8429,2.0,222.0367683,63.2008386,-99999.0,'11111222,11111222,99999999' 
TABS,ioos:station:wmo:42048:1,1998-03-01T01:30:00Z,27.9396,-96.8429,2.0,220.0402752,64.61691574,-99999.0,'11111222,11111222,99999999' 
TABS,ioos:station:wmo:42048:1,1998-03-01T02:00:00Z,27.9396,-96.8429,2.0,221.4005974,62.1783242,-99999.0,'11111222,11111222,99999999' 
TABS,ioos:station:wmo:42048:1,1998-03-01T02:30:00Z,27.9396,-96.8429,2.0,223.8347348,67.12537896,-99999.0,'11111222,11111222,99999999' 
TABS,ioos:station:wmo:42048:1,1998-03-01T03:00:00Z,27.9396,-96.8429,2.0,223.230666,64.82308925,-99999.0,'11111222,11111222,99999999' 
TABS,ioos:station:wmo:42048:1,1998-03-01T03:30:00Z,27.9396,-96.8429,2.0,222.1593813,65.92677301,-99999.0,'11111222,11111222,99999999' 
TABS,ioos:station:wmo:42048:1,1998-03-01T04:00:00Z,27.9396,-96.8429,2.0,222.9462382,64.72769423,-99999.0,'11111222,11111222,99999999' 
TABS,ioos:station:wmo:42048:1,1998-03-01T04:30:00Z,27.9396,-96.8429,2.0,220.9788462,69.07758319,-99999.0,'11111222,11111222,99999999' 
TABS,ioos:station:wmo:42048:1,1998-03-01T05:00:00Z,27.9396,-96.8429,2.0,218.8802274,65.27018462,-99999.0,'11111222,11111222,99999999' 
TABS,ioos:station:wmo:42048:1,1998-03-01T05:30:00Z,27.9396,-96.8429,2.0,225.209421,86.92521901,-99999.0,'11111222,11111222,99999999' 
TABS,ioos:station:wmo:42048:1,1998-03-01T06:00:00Z,27.9396,-96.8429,2.0,224.3449613,82.92075494,-99999.0,'11111222,11111222,99999999' 
TABS,ioos:station:wmo:42048:1,1998-03-01T06:30:00Z,27.9396,-96.8429,2.0,224.1081697,81.34834049,-99999.0,'11111222,11111222,99999999' 
TABS,ioos:station:wmo:42048:1,1998-03-01T07:00:00Z,27.9396,-96.8429,2.0,224.6294669,82.07559747,-99999.0,'11111222,11111222,99999999' 
TABS,ioos:station:wmo:42048:1,1998-03-01T07:30:00Z,27.9396,-96.8429,2.0,224.7680528,78.70869901,-99999.0,'11111222,11111222,99999999' 
TABS,ioos:station:wmo:42048:1,1998-03-01T08:00:00Z,27.9396,-96.8429,2.0,224.4495953,76.59733677,-99999.0,'11111222,11111222,99999999' 
TABS,ioos:station:wmo:42048:1,1998-03-01T08:30:00Z,27.9396,-96.8429,2.0,221.6130634,73.13649773,-99999.0,'11111222,11111222,99999999' 
TABS,ioos:station:wmo:42048:1,1998-03-01T09:00:00Z,27.9396,-96.8429,2.0,218.4622703,68.50446482,-99999.0,'11111222,11111222,99999999' 
TABS,ioos:station:wmo:42048:1,1998-03-01T09:30:00Z,27.9396,-96.8429,2.0,215.0916704,62.46407127,-99999.0,'11111222,11111222,99999999' 
TABS,ioos:station:wmo:42048:1,1998-03-01T10:00:00Z,27.9396,-96.8429,2.0,211.5039826,54.17538371,-99999.0,'11111222,11111222,99999999' 
TABS,ioos:station:wmo:42048:1,1998-03-01T10:30:00Z,27.9396,-96.8429,2.0,204.5205965,52.4065349,-99999.0,'11111222,11111222,99999999' 
TABS,ioos:station:wmo:42048:1,1998-03-01T11:00:00Z,27.9396,-96.8429,2.0,200.4386291,48.65293619,-99999.0,'11111222,11111222,99999999' 
TABS,ioos:station:wmo:42048:1,1998-03-01T11:30:00Z,27.9396,-96.8429,2.0,201.5041795,48.36685745,-99999.0,'11111222,11111222,99999999' 
TABS,ioos:station:wmo:42048:1,1998-03-01T12:00:00Z,27.9396,-96.8429,2.0,201.1860061,46.18137828,-99999.0,'11111222,11111222,99999999' 
TABS,ioos:station:wmo:42048:1,1998-03-01T12:30:00Z,27.9396,-96.8429,2.0,197.0761599,41.61462243,-99999.0,'11111222,11111222,99999999' 
TABS,ioos:station:wmo:42048:1,1998-03-01T13:00:00Z,27.9396,-96.8429,2.0,204.9283622,46.66788296,-99999.0,'11111222,11111222,99999999' 
TABS,ioos:station:wmo:42048:1,1998-03-01T13:30:00Z,27.9396,-96.8429,2.0,210.5926534,47.4323571,-99999.0,'11111222,11111222,99999999' 
TABS,ioos:station:wmo:42048:1,1998-03-01T14:00:00Z,27.9396,-96.8429,2.0,197.9936014,30.39671364,-99999.0,'11111222,11111222,99999999' 
TABS,ioos:station:wmo:42048:1,1998-03-01T14:30:00Z,27.9396,-96.8429,2.0,192.8474644,36.83210828,-99999.0,'11111222,11111222,99999999' 
TABS,ioos:station:wmo:42048:1,1998-03-01T15:00:00Z,27.9396,-96.8429,2.0,182.8078629,42.66122596,-99999.0,'11111222,11111222,99999999' 
TABS,ioos:station:wmo:42048:1,1998-03-01T15:30:00Z,27.9396,-96.8429,2.0,177.2177268,45.94415088,-99999.0,'11111222,11111222,99999999' 
TABS,ioos:station:wmo:42048:1,1998-03-01T16:00:00Z,27.9396,-96.8429,2.0,172.2310772,50.67510829,-99999.0,'11111222,11111222,99999999' 
TABS,ioos:station:wmo:42048:1,1998-03-01T16:30:00Z,27.9396,-96.8429,2.0,169.8219145,66.60815641,-99999.0,'11111222,11111222,99999999' 
TABS,ioos:station:wmo:42048:1,1998-03-01T17:00:00Z,27.9396,-96.8429,2.0,211.9017836,62.31207668,-99999.0,'11111222,11111222,99999999' 
TABS,ioos:station:wmo:42048:1,1998-03-01T17:30:00Z,27.9396,-96.8429,2.0,217.0157211,69.79622698,-99999.0,'11111222,11111222,99999999' 
TABS,ioos:station:wmo:42048:1,1998-03-01T18:00:00Z,27.9396,-96.8429,2.0,219.8655271,71.82616863,-99999.0,'11111222,11111222,99999999' 
TABS,ioos:station:wmo:42048:1,1998-03-01T18:30:00Z,27.9396,-96.8429,2.0,222.010967,70.79282732,-99999.0,'11111222,11111222,99999999' 
TABS,ioos:station:wmo:42048:1,1998-03-01T19:00:00Z,27.9396,-96.8429,2.0,223.7065616,69.87287385,-99999.0,'11111222,11111222,99999999' 
TABS,ioos:station:wmo:42048:1,1998-03-01T19:30:00Z,27.9396,-96.8429,2.0,225.2756432,66.06575285,-99999.0,'11111222,11111222,99999999' 
TABS,ioos:station:wmo:42048:1,1998-03-01T20:00:00Z,27.9396,-96.8429,2.0,225.6520261,64.59131985,-99999.0,'11111222,11111222,99999999' 
TABS,ioos:station:wmo:42048:1,1998-03-01T20:30:00Z,27.9396,-96.8429,2.0,228.8267539,66.31894149,-99999.0,'11111222,11111222,99999999' 
TABS,ioos:station:wmo:42048:1,1998-03-01T21:00:00Z,27.9396,-96.8429,2.0,230.0159896,66.31190089,-99999.0,'11111222,11111222,99999999' 
TABS,ioos:station:wmo:42048:1,1998-03-01T21:30:00Z,27.9396,-96.8429,2.0,233.7989493,66.10050832,-99999.0,'11111222,11111222,99999999' 
TABS,ioos:station:wmo:42048:1,1998-03-01T22:00:00Z,27.9396,-96.8429,2.0,234.7351941,61.6782109,-99999.0,'11111222,11111222,99999999' 
TABS,ioos:station:wmo:42048:1,1998-03-01T22:30:00Z,27.9396,-96.8429,2.0,237.2605425,61.99905967,-99999.0,'11111222,11111222,99999999' 
TABS,ioos:station:wmo:42048:1,1998-03-01T23:00:00Z,27.9396,-96.8429,2.0,238.7432776,59.4370398,-99999.0,'11111222,11111222,99999999' 
TABS,ioos:station:wmo:42048:1,1998-03-01T23:30:00Z,27.9396,-96.8429,2.0,240.427724,54.6487127,-99999.0,'11111222,11111222,99999999' 
TABS,ioos:station:wmo:42048:1,1998-03-02T00:00:00Z,27.9396,-96.8429,2.0,239.358166,49.69936116,-99999.0,'11111222,11111222,99999999' 
TABS,ioos:station:wmo:42048:1,1998-03-02T00:30:00Z,27.9396,-96.8429,2.0,236.8072815,47.89462183,-99999.0,'11111222,11111222,99999999' 
TABS,ioos:station:wmo:42048:1,1998-03-02T01:00:00Z,27.9396,-96.8429,2.0,241.9915985,47.59414775,-99999.0,'11111222,11111222,99999999' 
TABS,ioos:station:wmo:42048:1,1998-03-02T01:30:00Z,27.9396,-96.8429,2.0,239.2550299,46.63423635,-99999.0,'11111222,11111222,99999999' 
TABS,ioos:station:wmo:42048:1,1998-03-02T02:00:00Z,27.9396,-96.8429,2.0,241.5547429,42.53501616,-99999.0,'11111222,11111222,99999999' 
TABS,ioos:station:wmo:42048:1,1998-03-02T02:30:00Z,27.9396,-96.8429,2.0,243.4402871,44.97627152,-99999.0,'11111222,11111222,99999999' 
TABS,ioos:station:wmo:42048:1,1998-03-02T03:00:00Z,27.9396,-96.8429,2.0,244.2615946,41.51916305,-99999.0,'11111222,11111222,99999999' 
TABS,ioos:station:wmo:42048:1,1998-03-02T03:30:00Z,27.9396,-96.8429,2.0,243.0751866,42.776822,-99999.0,'11111222,11111222,99999999' 
TABS,ioos:station:wmo:42048:1,1998-03-02T04:00:00Z,27.9396,-96.8429,2.0,243.144888,38.91702455,-99999.0,'11111222,11111222,99999999' 
TABS,ioos:station:wmo:42048:1,1998-03-02T04:30:00Z,27.9396,-96.8429,2.0,240.7625882,35.68619481,-99999.0,'11111222,11111222,99999999' 
TABS,ioos:station:wmo:42048:1,1998-03-02T05:00:00Z,27.9396,-96.8429,2.0,238.7816908,33.62948855,-99999.0,'11111222,11111222,99999999' 
TABS,ioos:station:wmo:42048:1,1998-03-02T05:30:00Z,27.9396,-96.8429,2.0,236.4649208,29.66824902,-99999.0,'11111222,11111222,99999999' 
TABS,ioos:station:wmo:42048:1,1998-03-02T06:00:00Z,27.9396,-96.8429,2.0,234.8944428,26.95278279,-99999.0,'11111222,11111222,99999999' 
TABS,ioos:station:wmo:42048:1,1998-03-02T06:30:00Z,27.9396,-96.8429,2.0,228.5237971,25.65284585,-99999.0,'11111222,11111222,99999999' 
TABS,ioos:station:wmo:42048:1,1998-03-02T07:00:00Z,27.9396,-96.8429,2.0,227.1569998,22.35334651,-99999.0,'11111222,11111222,99999999' 
TABS,ioos:station:wmo:42048:1,1998-03-02T07:30:00Z,27.9396,-96.8429,2.0,225.530693,22.12632143,-99999.0,'11111222,11111222,99999999' 
TABS,ioos:station:wmo:42048:1,1998-03-02T08:00:00Z,27.9396,-96.8429,2.0,226.3105687,18.54519345,-99999.0,'11111222,11111222,99999999' 
TABS,ioos:station:wmo:42048:1,1998-03-02T08:30:00Z,27.9396,-96.8429,2.0,222.0583994,18.46567085,-99999.0,'11111222,11111222,99999999' 
TABS,ioos:station:wmo:42048:1,1998-03-02T09:00:00Z,27.9396,-96.8429,2.0,219.0533213,17.26854076,-99999.0,'11111222,11111222,99999999' 
TABS,ioos:station:wmo:42048:1,1998-03-02T09:30:00Z,27.9396,-96.8429,2.0,209.6079252,15.07894559,-99999.0,'11111222,11111222,99999999' 
TABS,ioos:station:wmo:42048:1,1998-03-02T10:00:00Z,27.9396,-96.8429,2.0,229.4053395,17.85771542,-99999.0,'11111222,11111222,99999999' 
TABS,ioos:station:wmo:42048:1,1998-03-02T10:30:00Z,27.9396,-96.8429,2.0,225.3371106,18.01032204,-99999.0,'11111222,11111222,99999999' 
TABS,ioos:station:wmo:42048:1,1998-03-02T11:00:00Z,27.9396,-96.8429,2.0,219.6573724,15.87278488,-99999.0,'11111222,11111222,99999999' 
TABS,ioos:station:wmo:42048:1,1998-03-02T11:30:00Z,27.9396,-96.8429,2.0,227.6113596,16.13879797,-99999.0,'11111222,11111222,99999999' 
TABS,ioos:station:wmo:42048:1,1998-03-02T12:00:00Z,27.9396,-96.8429,2.0,216.869601,14.9,-99999.0,'11111222,11111222,99999999' 
TABS,ioos:station:wmo:42048:1,1998-03-02T12:30:00Z,27.9396,-96.8429,2.0,222.9552533,14.86577613,-99999.0,'11111222,11111222,99999999' 
TABS,ioos:station:wmo:42048:1,1998-03-02T13:00:00Z,27.9396,-96.8429,2.0,215.417509,13.89046076,-99999.0,'11111222,11111222,99999999' 
TABS,ioos:station:wmo:42048:1,1998-03-02T13:30:00Z,27.9396,-96.8429,2.0,227.311043,15.60440002,-99999.0,'11111222,11111222,99999999' 
TABS,ioos:station:wmo:42048:1,1998-03-02T14:00:00Z,27.9396,-96.8429,2.0,241.4669992,25.26905024,-99999.0,'11111222,11111222,99999999' 
TABS,ioos:station:wmo:42048:1,1998-03-02T14:30:00Z,27.9396,-96.8429,2.0,243.43459,23.32218901,-99999.0,'11111222,11111222,99999999' 
TABS,ioos:station:wmo:42048:1,1998-03-02T15:00:00Z,27.9396,-96.8429,2.0,240.9398597,21.47318793,-99999.0,'11111222,11111222,99999999' 
TABS,ioos:station:wmo:42048:1,1998-03-02T15:30:00Z,27.9396,-96.8429,2.0,238.3167772,22.40977019,-99999.0,'11111222,11111222,99999999' 
TABS,ioos:station:wmo:42048:1,1998-03-02T16:00:00Z,27.9396,-96.8429,2.0,233.6019738,21.84074175,-99999.0,'11111222,11111222,99999999' 
TABS,ioos:station:wmo:42048:1,1998-03-02T16:30:00Z,27.9396,-96.8429,2.0,232.3697451,20.50580406,-99999.0,'11111222,11111222,99999999' 
TABS,ioos:station:wmo:42048:1,1998-03-02T17:00:00Z,27.9396,-96.8429,2.0,232.6633277,22.11073269,-99999.0,'11111222,11111222,99999999' 
TABS,ioos:station:wmo:42048:1,1998-03-02T17:30:00Z,27.9396,-96.8429,2.0,233.9503523,23.04236316,-99999.0,'11111222,11111222,99999999' 
TABS,ioos:station:wmo:42048:1,1998-03-02T18:00:00Z,27.9396,-96.8429,2.0,228.7557903,24.17842013,-99999.0,'11111222,11111222,99999999' 
TABS,ioos:station:wmo:42048:1,1998-03-02T18:30:00Z,27.9396,-96.8429,2.0,230.1447876,22.3142757,-99999.0,'11111222,11111222,99999999' 
TABS,ioos:station:wmo:42048:1,1998-03-02T19:00:00Z,27.9396,-96.8429,2.0,229.3008374,21.02493044,-99999.0,'11111222,11111222,99999999' 
TABS,ioos:station:wmo:42048:1,1998-03-02T19:30:00Z,27.9396,-96.8429,2.0,228.5797507,20.2698816,-99999.0,'11111222,11111222,99999999' 
TABS,ioos:station:wmo:42048:1,1998-03-02T20:00:00Z,27.9396,-96.8429,2.0,234.5021318,24.88513814,-99999.0,'11111222,11111222,99999999' 
TABS,ioos:station:wmo:42048:1,1998-03-02T20:30:00Z,27.9396,-96.8429,2.0,243.0072958,27.58490167,-99999.0,'11111222,11111222,99999999' 
TABS,ioos:station:wmo:42048:1,1998-03-02T21:00:00Z,27.9396,-96.8429,2.0,246.8061426,29.50455558,-99999.0,'11111222,11111222,99999999' 
TABS,ioos:station:wmo:42048:1,1998-03-02T21:30:00Z,27.9396,-96.8429,2.0,246.5417619,25.82430057,-99999.0,'11111222,11111222,99999999' 
TABS,ioos:station:wmo:42048:1,1998-03-02T22:00:00Z,27.9396,-96.8429,2.0,252.0336586,23.18027178,-99999.0,'11111222,11111222,99999999' 
TABS,ioos:station:wmo:42048:1,1998-03-02T22:30:00Z,27.9396,-96.8429,2.0,264.3208933,28.60035839,-99999.0,'11111222,11111222,99999999' 
TABS,ioos:station:wmo:42048:1,1998-03-02T23:00:00Z,27.9396,-96.8429,2.0,265.762493,30.18249327,-99999.0,'11111222,11111222,99999999' 
TABS,ioos:station:wmo:42048:1,1998-03-02T23:30:00Z,27.9396,-96.8429,2.0,269.2506591,22.9519607,-99999.0,'11111222,11111222,99999999' 
TABS,ioos:station:wmo:42048:1,1998-03-03T00:00:00Z,27.9396,-96.8429,2.0,270.7352542,23.39192382,-99999.0,'11111222,11111222,99999999' 
TABS,ioos:station:wmo:42048:1,1998-03-03T00:30:00Z,27.9396,-96.8429,2.0,274.2378553,20.16512336,-99999.0,'11111222,11111222,99999999' 
TABS,ioos:station:wmo:42048:1,1998-03-03T01:00:00Z,27.9396,-96.8429,2.0,272.6336665,16.10700779,-99999.0,'11111222,11111222,99999999' 
TABS,ioos:station:wmo:42048:1,1998-03-03T01:30:00Z,27.9396,-96.8429,2.0,277.5824522,18.03770495,-99999.0,'11111222,11111222,99999999' 
TABS,ioos:station:wmo:42048:1,1998-03-03T02:00:00Z,27.9396,-96.8429,2.0,274.1155683,16.58275309,-99999.0,'11111222,11111222,99999999' 
TABS,ioos:station:wmo:42048:1,1998-03-03T02:30:00Z,27.9396,-96.8429,2.0,278.3493121,22.58939796,-99999.0,'11111222,11111222,99999999' 
TABS,ioos:station:wmo:42048:1,1998-03-03T03:00:00Z,27.9396,-96.8429,2.0,275.854884,19.01920082,-99999.0,'11111222,11111222,99999999' 
TABS,ioos:station:wmo:42048:1,1998-03-03T03:30:00Z,27.9396,-96.8429,2.0,274.401172,21.37301336,-99999.0,'11111222,11111222,99999999' 
TABS,ioos:station:wmo:42048:1,1998-03-03T04:00:00Z,27.9396,-96.8429,2.0,267.6096082,17.74543603,-99999.0,'11111222,11111222,99999999' 
TABS,ioos:station:wmo:42048:1,1998-03-03T04:30:00Z,27.9396,-96.8429,2.0,272.3796944,25.05159676,-99999.0,'11111222,11111222,99999999' 
TABS,ioos:station:wmo:42048:1,1998-03-03T05:00:00Z,27.9396,-96.8429,2.0,273.7629202,29.56372101,-99999.0,'11111222,11111222,99999999' 
TABS,ioos:station:wmo:42048:1,1998-03-03T05:30:00Z,27.9396,-96.8429,2.0,274.4573059,28.69677682,-99999.0,'11111222,11111222,99999999' 
TABS,ioos:station:wmo:42048:1,1998-03-03T06:00:00Z,27.9396,-96.8429,2.0,278.3361468,28.76387491,-99999.0,'11111222,11111222,99999999' 
TABS,ioos:station:wmo:42048:1,1998-03-03T06:30:00Z,27.9396,-96.8429,2.0,278.2113863,26.04701134,-99999.0,'11111222,11111222,99999999' 
TABS,ioos:station:wmo:42048:1,1998-03-03T07:00:00Z,27.9396,-96.8429,2.0,278.6063816,24.85990346,-99999.0,'11111222,11111222,99999999' 
TABS,ioos:station:wmo:42048:1,1998-03-03T07:30:00Z,27.9396,-96.8429,2.0,279.4713799,21.75656223,-99999.0,'11111222,11111222,99999999' 
TABS,ioos:station:wmo:42048:1,1998-03-03T08:00:00Z,27.9396,-96.8429,2.0,271.3210395,19.5251863,-99999.0,'11111222,11111222,99999999' 
TABS,ioos:station:wmo:42048:1,1998-03-03T08:30:00Z,27.9396,-96.8429,2.0,264.9876513,17.05521035,-99999.0,'11111222,11111222,99999999' 
TABS,ioos:station:wmo:42048:1,1998-03-03T09:00:00Z,27.9396,-96.8429,2.0,257.462575,15.1102912,-99999.0,'11111222,11111222,99999999' 
TABS,ioos:station:wmo:42048:1,1998-03-03T09:30:00Z,27.9396,-96.8429,2.0,250.6654351,15.31363445,-99999.0,'11111222,11111222,99999999' 
TABS,ioos:station:wmo:42048:1,1998-03-03T10:00:00Z,27.9396,-96.8429,2.0,248.3954057,16.18715849,-99999.0,'11111222,11111222,99999999' 
TABS,ioos:station:wmo:42048:1,1998-03-03T10:30:00Z,27.9396,-96.8429,2.0,240.7625318,17.07529209,-99999.0,'11111222,11111222,99999999' 
TABS,ioos:station:wmo:42048:1,1998-03-03T11:00:00Z,27.9396,-96.8429,2.0,237.3176457,18.76009062,-99999.0,'11111222,11111222,99999999' 
TABS,ioos:station:wmo:42048:1,1998-03-03T11:30:00Z,27.9396,-96.8429,2.0,235.1597123,18.51962203,-99999.0,'11111222,11111222,99999999' 
TABS,ioos:station:wmo:42048:1,1998-03-03T12:00:00Z,27.9396,-96.8429,2.0,228.4079326,15.93809273,-99999.0,'11111222,11111222,99999999' 
TABS,ioos:station:wmo:42048:1,1998-03-03T12:30:00Z,27.9396,-96.8429,2.0,227.0607893,17.49807132,-99999.0,'11111222,11111222,99999999' 
TABS,ioos:station:wmo:42048:1,1998-03-03T13:00:00Z,27.9396,-96.8429,2.0,227.9198001,20.68144337,-99999.0,'11111222,11111222,99999999' 
TABS,ioos:station:wmo:42048:1,1998-03-03T13:30:00Z,27.9396,-96.8429,2.0,226.7455527,24.13768837,-99999.0,'11111222,11111222,99999999' 
TABS,ioos:station:wmo:42048:1,1998-03-03T14:00:00Z,27.9396,-96.8429,2.0,222.5996516,27.5235263,-99999.0,'11111222,11111222,99999999' 
TABS,ioos:station:wmo:42048:1,1998-03-03T14:30:00Z,27.9396,-96.8429,2.0,213.5777708,21.28111369,-99999.0,'11111222,11111222,99999999' 
TABS,ioos:station:wmo:42048:1,1998-03-03T15:00:00Z,27.9396,-96.8429,2.0,210.6955351,15.76946733,-99999.0,'11111222,11111222,99999999' 
TABS,ioos:station:wmo:42048:1,1998-03-03T15:30:00Z,27.9396,-96.8429,2.0,212.9307705,18.6340146,-99999.0,'11111222,11111222,99999999' 
TABS,ioos:station:wmo:42048:1,1998-03-03T16:00:00Z,27.9396,-96.8429,2.0,210.8921661,22.04787518,-99999.0,'11111222,11111222,99999999' 
TABS,ioos:station:wmo:42048:1,1998-03-03T16:30:00Z,27.9396,-96.8429,2.0,209.5920167,21.42459568,-99999.0,'11111222,11111222,99999999' 
TABS,ioos:station:wmo:42048:1,1998-03-03T17:00:00Z,27.9396,-96.8429,2.0,211.9086789,21.41622749,-99999.0,'11111222,11111222,99999999' 
TABS,ioos:station:wmo:42048:1,1998-03-03T17:30:00Z,27.9396,-96.8429,2.0,214.2598276,20.90768519,-99999.0,'11111222,11111222,99999999' 
TABS,ioos:station:wmo:42048:1,1998-03-03T18:00:00Z,27.9396,-96.8429,2.0,217.1660829,23.19031048,-99999.0,'11111222,11111222,99999999' 
TABS,ioos:station:wmo:42048:1,1998-03-03T18:30:00Z,27.9396,-96.8429,2.0,217.4407168,23.27515628,-99999.0,'11111222,11111222,99999999' 
TABS,ioos:station:wmo:42048:1,1998-03-03T19:00:00Z,27.9396,-96.8429,2.0,222.6687668,23.2972316,-99999.0,'11111222,11111222,99999999' 
TABS,ioos:station:wmo:42048:1,1998-03-03T19:30:00Z,27.9396,-96.8429,2.0,223.1395145,22.87281574,-99999.0,'11111222,11111222,99999999' 
TABS,ioos:station:wmo:42048:1,1998-03-03T20:00:00Z,27.9396,-96.8429,2.0,225.5240349,23.17993097,-99999.0,'11111222,11111222,99999999' 
TABS,ioos:station:wmo:42048:1,1998-03-03T20:30:00Z,27.9396,-96.8429,2.0,233.7747195,23.45348588,-99999.0,'11111222,11111222,99999999' 
TABS,ioos:station:wmo:42048:1,1998-03-03T21:00:00Z,27.9396,-96.8429,2.0,232.7819912,23.39443096,-99999.0,'11111222,11111222,99999999' 
TABS,ioos:station:wmo:42048:1,1998-03-03T21:30:00Z,27.9396,-96.8429,2.0,232.1050525,23.03768435,-99999.0,'11111222,11111222,99999999' 
TABS,ioos:station:wmo:42048:1,1998-03-03T22:00:00Z,27.9396,-96.8429,2.0,237.8076989,23.76315846,-99999.0,'11111222,11111222,99999999' 
TABS,ioos:station:wmo:42048:1,1998-03-03T22:30:00Z,27.9396,-96.8429,2.0,234.1894615,24.44018003,-99999.0,'11111222,11111222,99999999' 
TABS,ioos:station:wmo:42048:1,1998-03-03T23:00:00Z,27.9396,-96.8429,2.0,235.3976198,23.35028908,-99999.0,'11111222,11111222,99999999' 
TABS,ioos:station:wmo:42048:1,1998-03-03T23:30:00Z,27.9396,-96.8429,2.0,230.5072466,20.84983693,-99999.0,'11111222,11111222,99999999' 
TABS,ioos:station:wmo:42048:1,1998-03-04T00:00:00Z,27.9396,-96.8429,2.0,224.9996843,19.81313201,-99999.0,'11111222,11111222,99999999' 
TABS,ioos:station:wmo:42048:1,1998-03-04T00:30:00Z,27.9396,-96.8429,2.0,226.537732,19.49488651,-99999.0,'11111222,11111222,99999999' 
TABS,ioos:station:wmo:42048:1,1998-03-04T01:00:00Z,27.9396,-96.8429,2.0,220.1224172,14.80385085,-99999.0,'11111222,11111222,99999999' 
TABS,ioos:station:wmo:42048:1,1998-03-04T01:30:00Z,27.9396,-96.8429,2.0,228.3661371,17.94197592,-99999.0,'11111222,11111222,99999999' 
TABS,ioos:station:wmo:42048:1,1998-03-04T02:00:00Z,27.9396,-96.8429,2.0,226.6438712,18.2367212,-99999.0,'11111222,11111222,99999999' 
TABS,ioos:station:wmo:42048:1,1998-03-04T02:30:00Z,27.9396,-96.8429,2.0,220.7454967,18.49229569,-99999.0,'11111222,11111222,99999999' 
TABS,ioos:station:wmo:42048:1,1998-03-04T03:00:00Z,27.9396,-96.8429,2.0,211.207468,18.12241982,-99999.0,'11111222,11111222,99999999' 
TABS,ioos:station:wmo:42048:1,1998-03-04T03:30:00Z,27.9396,-96.8429,2.0,208.002118,15.86765893,-99999.0,'11111222,11111222,99999999' 
TABS,ioos:station:wmo:42048:1,1998-03-04T04:00:00Z,27.9396,-96.8429,2.0,214.3118564,15.32726982,-99999.0,'11111222,11111222,99999999' 
TABS,ioos:station:wmo:42048:1,1998-03-04T04:30:00Z,27.9396,-96.8429,2.0,204.8937426,13.80240921,-99999.0,'11111222,11111222,99999999' 
TABS,ioos:station:wmo:42048:1,1998-03-04T05:00:00Z,27.9396,-96.8429,2.0,206.3166703,14.4585511,-99999.0,'11111222,11111222,99999999' 
TABS,ioos:station:wmo:42048:1,1998-03-04T05:30:00Z,27.9396,-96.8429,2.0,202.883035,14.55553846,-99999.0,'11111222,11111222,99999999' 
TABS,ioos:station:wmo:42048:1,1998-03-04T06:00:00Z,27.9396,-96.8429,2.0,201.930374,13.1732608,-99999.0,'11111222,11111222,99999999' 
TABS,ioos:station:wmo:42048:1,1998-03-04T06:30:00Z,27.9396,-96.8429,2.0,190.4057309,13.1767219,-99999.0,'11111222,11111222,99999999' 
TABS,ioos:station:wmo:42048:1,1998-03-04T07:00:00Z,27.9396,-96.8429,2.0,196.1407165,12.87762789,-99999.0,'11111222,11111222,99999999' 
TABS,ioos:station:wmo:42048:1,1998-03-04T07:30:00Z,27.9396,-96.8429,2.0,207.1641701,12.39743925,-99999.0,'11111222,11111222,99999999' 
TABS,ioos:station:wmo:42048:1,1998-03-04T08:00:00Z,27.9396,-96.8429,2.0,195.5715562,12.2184819,-99999.0,'11111222,11111222,99999999' 
TABS,ioos:station:wmo:42048:1,1998-03-04T08:30:00Z,27.9396,-96.8429,2.0,197.9182114,10.17346057,-99999.0,'11111222,11111222,99999999' 
TABS,ioos:station:wmo:42048:1,1998-03-04T09:00:00Z,27.9396,-96.8429,2.0,193.7835981,9.359540587,-99999.0,'11133222,11111222,99999999' 
TABS,ioos:station:wmo:42048:1,1998-03-04T09:30:00Z,27.9396,-96.8429,2.0,193.1580907,9.181051138,-99999.0,'11133222,11111222,99999999' 
TABS,ioos:station:wmo:42048:1,1998-03-04T10:00:00Z,27.9396,-96.8429,2.0,193.8129526,9.968289723,-99999.0,'11133222,11111222,99999999' 
TABS,ioos:station:wmo:42048:1,1998-03-04T10:30:00Z,27.9396,-96.8429,2.0,194.007734,9.832395435,-99999.0,'11133222,11111222,99999999' 
TABS,ioos:station:wmo:42048:1,1998-03-04T11:00:00Z,27.9396,-96.8429,2.0,188.6675449,8.89155217,-99999.0,'11133222,11111222,99999999' 
TABS,ioos:station:wmo:42048:1,1998-03-04T11:30:00Z,27.9396,-96.8429,2.0,202.9390713,8.415515433,-99999.0,'11133222,11111222,99999999' 
TABS,ioos:station:wmo:42048:1,1998-03-04T12:00:00Z,27.9396,-96.8429,2.0,202.1598717,9.491074755,-99999.0,'11133222,11111222,99999999' 
TABS,ioos:station:wmo:42048:1,1998-03-04T12:30:00Z,27.9396,-96.8429,2.0,196.1741986,9.620810777,-99999.0,'11133222,11111222,99999999' 
TABS,ioos:station:wmo:42048:1,1998-03-04T13:00:00Z,27.9396,-96.8429,2.0,182.9304552,8.801511234,-99999.0,'11133222,11111222,99999999' 
TABS,ioos:station:wmo:42048:1,1998-03-04T13:30:00Z,27.9396,-96.8429,2.0,191.9353642,5.02871753,-99999.0,'11133222,11111222,99999999' 
TABS,ioos:station:wmo:42048:1,1998-03-04T14:00:00Z,27.9396,-96.8429,2.0,204.1833452,4.735609781,-99999.0,'11133222,11111222,99999999' 
TABS,ioos:station:wmo:42048:1,1998-03-04T14:30:00Z,27.9396,-96.8429,2.0,205.4559691,3.466554485,-99999.0,'11133222,11111222,99999999' 
TABS,ioos:station:wmo:42048:1,1998-03-04T15:00:00Z,27.9396,-96.8429,2.0,211.5247544,2.275895428,-99999.0,'11133222,11111222,99999999' 
TABS,ioos:station:wmo:42048:1,1998-03-04T15:30:00Z,27.9396,-96.8429,2.0,175.20967,1.796273921,-99999.0,'11133222,11111222,99999999' 
TABS,ioos:station:wmo:42048:1,1998-03-04T16:00:00Z,27.9396,-96.8429,2.0,167.8489069,2.137896162,-99999.0,'11133222,11111222,99999999' 